TimeEDT,TemperatureF,Dew PointF,Humidity,Sea Level PressureIn,VisibilityMPH,Wind Direction,Wind SpeedMPH,Gust SpeedMPH,PrecipitationIn,Events,Conditions,WindDirDegrees,DateUTC
12:53 AM,55.9,55.0,97,30.02,0.5,South,3.5,-,N/A,Fog,Fog,190,2012-10-05 04:53:00
1:53 AM,55.9,55.9,100,30.01,0.2,South,3.5,-,0.01,Fog,Fog,180,2012-10-05 05:53:00
2:53 AM,55.9,55.9,100,30.00,0.2,SSE,3.5,-,N/A,Fog,Fog,160,2012-10-05 06:53:00
3:04 AM,55.4,55.4,100,30.00,0.5,SW,3.5,-,N/A,Fog,Fog,220,2012-10-05 07:04:00
3:53 AM,55.9,55.9,100,30.00,0.8,Calm,Calm,-,N/A,,Mist,0,2012-10-05 07:53:00
4:53 AM,55.9,55.9,100,30.00,0.5,Calm,Calm,-,N/A,Fog,Fog,0,2012-10-05 08:53:00
5:53 AM,55.9,55.9,100,30.00,0.5,Calm,Calm,-,N/A,Fog,Fog,0,2012-10-05 09:53:00
6:04 AM,55.4,55.4,100,30.00,0.2,Calm,Calm,-,N/A,Fog,Fog,0,2012-10-05 10:04:00
6:53 AM,55.9,55.9,100,30.00,0.2,Calm,Calm,-,N/A,Fog,Fog,0,2012-10-05 10:53:00
7:38 AM,55.4,55.4,100,30.00,1.0,South,3.5,-,N/A,,Overcast,190,2012-10-05 11:38:00
7:42 AM,55.4,55.4,100,30.00,3.0,SW,3.5,-,N/A,,Overcast,220,2012-10-05 11:42:00
7:53 AM,55.9,55.9,100,30.00,5.0,Calm,Calm,-,N/A,,Overcast,0,2012-10-05 11:53:00
8:53 AM,55.9,55.9,100,29.99,6.0,SSW,5.8,-,N/A,,Overcast,210,2012-10-05 12:53:00
9:53 AM,55.9,55.9,100,29.99,10.0,Variable,3.5,-,N/A,,Overcast,0,2012-10-05 13:53:00
10:53 AM,57.9,55.9,93,29.99,9.0,SSW,4.6,-,N/A,,Overcast,210,2012-10-05 14:53:00
11:53 AM,62.6,57.2,82,29.97,10.0,Variable,5.8,-,N/A,,Mostly Cloudy,0,2012-10-05 15:53:00
12:00 PM,62.6,57.2,82,29.97,10.0,Variable,5.8,-,N/A,,Scattered Clouds,0,2012-10-05 16:00:00
12:53 PM,63.0,57.0,81,29.96,10.0,SSW,8.1,-,N/A,,Scattered Clouds,210,2012-10-05 16:53:00
1:53 PM,66.0,57.9,75,29.94,10.0,Variable,4.6,-,N/A,,Clear,0,2012-10-05 17:53:00
2:53 PM,66.9,57.9,73,29.93,10.0,South,5.8,-,N/A,,Clear,190,2012-10-05 18:53:00
3:53 PM,66.9,59.0,76,29.91,10.0,SSE,6.9,-,N/A,,Clear,160,2012-10-05 19:53:00
4:53 PM,66.0,59.0,78,29.90,10.0,South,8.1,-,N/A,,Clear,170,2012-10-05 20:53:00
5:53 PM,64.0,59.0,84,29.91,10.0,South,6.9,-,N/A,,Clear,180,2012-10-05 21:53:00
6:53 PM,61.0,59.0,93,29.91,8.0,South,6.9,-,N/A,,Clear,170,2012-10-05 22:53:00
7:17 PM,60.8,57.2,88,29.92,6.0,South,5.8,-,N/A,,Scattered Clouds,190,2012-10-05 23:17:00
7:28 PM,59.0,57.2,94,29.91,6.0,Variable,6.9,-,N/A,,Mostly Cloudy,0,2012-10-05 23:28:00
7:53 PM,57.9,57.0,97,29.91,2.5,South,6.9,-,N/A,,Overcast,180,2012-10-05 23:53:00
8:53 PM,57.0,57.0,100,29.92,2.5,South,4.6,-,N/A,,Overcast,180,2012-10-06 00:53:00
9:14 PM,57.2,57.2,100,29.92,3.0,Variable,6.9,-,N/A,,Overcast,0,2012-10-06 01:14:00
9:53 PM,57.0,55.9,96,29.91,5.0,South,8.1,-,N/A,,Overcast,180,2012-10-06 01:53:00
10:24 PM,57.2,55.4,94,29.90,2.5,South,8.1,-,N/A,,Overcast,170,2012-10-06 02:24:00
10:35 PM,57.2,55.4,94,29.90,3.0,South,8.1,-,N/A,,Overcast,170,2012-10-06 02:35:00
10:53 PM,57.0,55.9,96,29.90,4.0,South,5.8,-,N/A,,Overcast,180,2012-10-06 02:53:00
11:53 PM,57.0,55.9,96,29.90,3.0,South,3.5,-,N/A,,Overcast,170,2012-10-06 03:53:00